Location: ?
(35.3544°N, 139.4507°E)
Time: 12:03:21
(UTC+00:00)

USA 234 - Pass Details

Date: 03 August 2024
Orbit: 1100 x 1107 km, 123.0° (Epoch: 08 July)

Event Time Altitude Azimuth Distance (km) Brightness Sun altitude
Rises 17:10:59 0° 50° (NE) 3,926 7.4 -27.5°
Reaches altitude 10° 17:13:38 10° 57° (ENE) 2,964 6.4 -27.1°
Maximum altitude 17:19:48 43° 127° (SE) 1,499 3.9 -26.3°
Enters shadow 17:21:34 36° 164° (SSE) 1,668 3.9 -26.1°
